Regional Weather Roundup
Issued by NWS Upton, NY

Current Version | Previous Version | Graphics & Text | Print | Product List | Glossary Off
Versions: 1 2 3 4 5 6 7 8 9 10 11 12 13 14 15 16 17 18 19 20 21 22 23 24 25 26 27 28 29 30 31 32 33 34 35 36 37 38 39 40 41 42 43 44 45 46 47 48 49 50

000
ASUS41 KOKX 270104
RWROKX

REGIONAL WEATHER ROUNDUP
NATIONAL WEATHER SERVICE NEW YORK NY
900 PM EDT WED AUG 26 2015

NOTE: "FAIR" INDICATES FEW OR NO CLOUDS BELOW 12,000 FEET WITH NO
SIGNIFICANT WEATHER AND/OR OBSTRUCTIONS TO VISIBILITY.

NYZ071-072-176-178-NJZ106-104-270200-
NEW YORK CITY METRO AREA


CITY           SKY/WX    TMP DP  RH WIND       PRES   REMARKS
CENTRAL PARK   CLEAR     76  52  43 MISG      30.00R
LAGUARDIA APRT PTCLDY    77  54  44 NW12      29.96R
KENNEDY INTL   PTCLDY    77  51  40 NW12      29.98R
NEWARK/LIBERTY PTCLDY    76  54  46 W8        29.98R
BRNX BOT. GARD   N/A     75  52  43 W2        30.00R
TETERBORO      PTCLDY    75  52  44 NW9       29.97R
$$

NYZ177-179-078>081-270200-
LONG ISLAND NEW YORK

CITY           SKY/WX    TMP DP  RH WIND       PRES   REMARKS
FARMINGDALE    MOCLDY    76  52  43 NW6       29.97R
ISLIP          PTCLDY    73  58  59 SW3       29.95R
SHIRLEY        CLEAR     73  60  63 CALM      29.97R
WESTHAMPTON    PTCLDY    73  59  61 SW5       29.98R
MONTAUK POINT    N/A     75  60  59 SW3       29.97R
$$

NYZ052-065-067-270200-
HUDSON VALLEY

CITY           SKY/WX    TMP DP  RH WIND       PRES   REMARKS
WHITE PLAINS   CLEAR     67  55  65 NW5       29.98R
NEWBURGH       CLEAR     68  57  68 CALM      29.99R
MONTGOMERY     MOCLDY    67  56  67 W3        29.99R
POUGHKEEPSIE   CLEAR     68  56  65 CALM      29.96R
ALBANY         MOCLDY    70  52  52 NW12      29.97R
$$

NJZ001-105-106-008-010-013-015-019>022-104-270200-
NEW JERSEY

CITY           SKY/WX    TMP DP  RH WIND       PRES   REMARKS
NEWARK/LIBERTY PTCLDY    76  54  46 W8        29.98R
TETERBORO      PTCLDY    75  52  44 NW9       29.97R
CALDWELL       MOCLDY    72  54  53 CALM      29.99R
MORRISTOWN     PTCLDY    68  57  68 NW3       30.00R
SOMERVILLE     MOCLDY    66  56  70 CALM      29.98R
SUSSEX         PTCLDY    63  57  81 CALM      30.00R
ANDOVER          N/A     63  59  87 CALM      30.02R
TRENTON        CLEAR     72  54  53 W6        30.01R
MILLVILLE      CLEAR     66  57  72 CALM      30.03R
ATLANTIC CITY  CLEAR     73  55  53 W7        30.02R
WRIGHTSTOWN    CLEAR     67  56  67 W3        29.98R
TOMS RIVER     CLEAR     64  55  72 W3        30.01R
BELMAR         CLEAR     70  54  56 W5        30.00R
$$

PAZ047>061-062-071-270200-
EASTERN PENNSYLVANIA

CITY           SKY/WX    TMP DP  RH WIND       PRES   REMARKS
PHILADELPHIA   CLEAR     76  51  41 NW9       30.02R
ALLENTOWN      CLEAR     67  55  65 W3        30.02R
SCRANTON       MOCLDY    67  54  63 NW3       30.03R
$$

CTZ002-004>006-009-010-012-RIZ004-006-007-MAZ004-011-015-270200-
SOUTHERN NEW ENGLAND
 IN CT

CITY           SKY/WX    TMP DP  RH WIND       PRES   REMARKS
BRADLEY INTL   CLEAR     67  57  70 W5        29.95R
HARTFORD       CLEAR     74  55  51 NW3       29.95R
DANBURY        CLEAR     64  56  75 SW5       29.99R
WTRBRY/OXFORD  NOT AVBL
BRIDGEPORT     CLEAR     75  53  46 NW6       29.96R
MERIDEN        PTCLDY    67  58  72 CALM      29.96R
NEW HAVEN      CLEAR     70  56  61 CALM      29.96R
CHESTER        NOT AVBL
GROTON         CLEAR     68  61  78 NW3       29.94R
WILLIMANTIC    CLEAR     69  56  62 CALM      29.95R

 IN RI

CITY           SKY/WX    TMP DP  RH WIND       PRES   REMARKS
PROVIDENCE     PTCLDY    72  57  59 W6        29.94R
BLOCK ISLAND   CLEAR     72  63  73 W7        29.95R
WESTERLY       CLEAR     70  57  63 W3        29.95R

 IN MA

CITY           SKY/WX    TMP DP  RH WIND       PRES   REMARKS
BOSTON         PTCLDY    76  56  49 NW8       29.91R
WORCESTER      CLEAR     65  55  70 W9        29.97R
WESTFIELD      CLEAR     67  55  65 NW6       29.95R
PROVINCETOWN   MOCLDY    72  64  78 W9        29.91R
NANTUCKET      CLEAR     70  63  78 W9        29.92R
$$

ANZ330-335-338-340-345-350-353-355-270200-
COASTAL MARINE OBSERVATIONS


STATION/POSITION TIME  SKY/WX   TEMP    WIND        PRES    VSBY  WAVE
                                AIR SEA DIR/SP/G                  HT/PER
                 (UTC)          (F)     (DEG/KT/KT) (MB)    (MI)  (FT/S)
NY HARB ENTRANCE 2350            77 77  260/ 12/ 14 1013.7          2/11
4S FIRE IS       NOT AVBL
20S FIRE ISLAND  2350            76 76  230/ 12/ 14 1013.9          2/ 9
GREAT SOUTH BAY  NOT AVBL
23SW MTP         0050            76 75  260/ 16/ 17 1013.9          3/ 4
HUDSON CANYON    NOT AVBL
KINGS POINT      0000            77 74  350/  7/ 10 1013.2
EXECUTION ROCKS  0000            77     290/  8/ 12   N/A
CENTRAL LI SOUND NOT AVBL
EASTERN LI SOUND 0000            73 71  290/  6/  8   N/A
ROBBINS REEF     0000            77     300/ 13/ 15 1013.2
$$


>>>>>>>>>>>>>>>>>>>>>>>>>>>> KEY <<<<<<<<<<<<<<<<<<<<<<<<<<<
>                                                          <
>     SKY/WX - SKY CONDITION/PRESENT WEATHER               <
>     TMP    - TEMPERATURE IN FAHRENHEIT                   <
>     DP     - DEWPOINT IN FAHRENHEIT                      <
>     RH     - RELATIVE HUMIDITY IN PERCENT                <
>     WIND   - DIRECTION AND SPEED IN MPH                  <
>     PRES   - MEAN SEA LEVEL PRESSURE IN INCHES OF HG     <
>     WCI    - WIND CHILL INDEX                            <
>     VSB    - VISIBILITY IN MILES                         <
>     HX     - HEAT INDEX                                  <
>     TC     - TEMPERATURE IN CELSIUS                      <
>     VRB    - VARIABLE WIND DIRECTION                     <
>                                                          <
>>>>>>>>>>>>>>>>>>>>>>>>>>>> KEY <<<<<<<<<<<<<<<<<<<<<<<<<<<




USA.gov is the U.S. government's official web portal to all federal, state and local government web resources and services.